Weather History for KLHX - October, 2013

Change the Weather History Date:

Friday, October 18, 2013

  Actual Average Record
Temperature  
Mean Temperature 41 °F 53 °F  
Max Temperature 49 °F 69 °F 87 °F (2003)
Min Temperature 33 °F 38 °F 23 °F (1968)
Degree Days  
Heating Degree Days 24 12  
Month to date heating degree days 164 161  
Since 1 July heating degree days 176 234  
Cooling Degree Days 0 0  
Month to date cooling degree days 8 7  
Year to date cooling degree days 1663 1223  
Moisture  
Dew Point 31 °F    
Average Humidity 71    
Maximum Humidity 96    
Minimum Humidity 45    
Precipitation  
Precipitation 0.07 in 0.04 in 1.06 in (1960)
Month to date precipitation 0.21 0.54  
Year to date precipitation 4.93 10.45  
Sea Level Pressure  
Sea Level Pressure 30.16 in    
Wind  
Wind Speed 7 mph (ENE)    
Max Wind Speed 15 mph    
Max Gust Speed 25 mph    
Visibility 7 miles    
Events Snow    
T = Trace of Precipitation, MM = Missing Value Source: NWS Daily Summary

Daily Weather History Graph

Daily Weather History Graph

Search for Another Location

Airport or City:

Trip Planner

Search our weather history database for the weather conditions in past years. The results will help you decide how hot, cold, wet, or windy it might be!

Date:

Astronomy

Oct. 18, 2013 Rise Set
Actual Time 7:05 AM MDT 6:11 PM MDT
Civil Twilight 6:39 AM MDT 6:38 PM MDT
Nautical Twilight 6:08 AM MDT 7:09 PM MDT
Astronomical Twilight 5:38 AM MDT 7:39 PM MDT
Moon 6:03 PM MDT (10/18) 6:43 AM MDT (10/18)
Length of Visible Light 11h 59m
Length of Day
11h 05m
Full, 100% of the Moon is Illuminated
Oct 18
Full
Oct 18
Full
Oct 26
Last Quarter
Nov 3
New
Nov 9
First Quarter

Hourly Weather History & Observations

Time (MDT) Temp. Windchill Dew Point Humidity Pressure Visibility Wind Dir Wind Speed Gust Speed Precip Events Conditions
12:53 AM 39.9 °F 35.1 °F 30.0 °F 68% 30.01 in 10.0 mi East 6.9 mph - N/A   Mostly Cloudy
1:53 AM 39.0 °F 34.8 °F 30.9 °F 73% 30.00 in 10.0 mi East 5.8 mph - N/A   Overcast
2:53 AM 36.0 °F 32.1 °F 28.9 °F 76% 30.00 in 10.0 mi ENE 4.6 mph - N/A   Mostly Cloudy
3:11 AM 35.6 °F 32.8 °F 28.4 °F 75% 30.05 in 10.0 mi ESE 3.5 mph - N/A   Mostly Cloudy
3:53 AM 36.0 °F 29.0 °F 30.0 °F 79% 29.98 in 10.0 mi ESE 9.2 mph - N/A   Mostly Cloudy
4:05 AM 35.6 °F 29.2 °F 28.4 °F 75% 30.05 in 10.0 mi East 8.1 mph - N/A   Mostly Cloudy
4:53 AM 37.9 °F 32.1 °F 30.9 °F 76% 30.01 in 10.0 mi East 8.1 mph - N/A   Overcast
5:53 AM 39.0 °F 32.3 °F 32.0 °F 76% 30.03 in 10.0 mi East 10.4 mph - N/A   Overcast
6:53 AM 37.9 °F 29.6 °F 30.9 °F 76% 30.06 in 10.0 mi East 13.8 mph - N/A   Overcast
7:53 AM 36.0 °F 30.3 °F 32.0 °F 86% 30.12 in 9.0 mi East 6.9 mph - 0.00 in   Overcast
8:05 AM 35.6 °F 29.2 °F 33.8 °F 93% 30.15 in 7.0 mi East 8.1 mph - 0.00 in   Overcast
8:25 AM 35.6 °F 29.2 °F 32.0 °F 87% 30.17 in 2.5 mi East 8.1 mph - 0.01 in Snow Light Snow
8:35 AM 35.6 °F 28.6 °F 33.8 °F 93% 30.18 in 2.0 mi ENE 9.2 mph - 0.02 in Snow Light Snow
8:41 AM 33.8 °F 26.4 °F 33.8 °F 100% 30.19 in 1.8 mi ENE 9.2 mph - 0.02 in Snow Light Snow
8:48 AM 33.8 °F 26.4 °F 32.0 °F 93% 30.19 in 0.8 mi NE 9.2 mph - 0.03 in Snow Light Snow
8:53 AM 33.1 °F 24.9 °F 32.0 °F 96% 30.19 in 0.8 mi NE 10.4 mph - 0.03 in Snow Light Snow
9:21 AM 33.8 °F 26.4 °F 32.0 °F 93% 30.22 in 1.2 mi ENE 9.2 mph - 0.01 in Snow Light Snow
9:50 AM 33.8 °F 27.0 °F 32.0 °F 93% 30.22 in 1.0 mi ENE 8.1 mph - 0.02 in Snow Light Snow
9:53 AM 34.0 °F 28.0 °F 32.0 °F 92% 30.22 in 1.0 mi ENE 6.9 mph - 0.02 in Snow Light Snow
10:05 AM 33.8 °F 27.7 °F 32.0 °F 93% 30.23 in 1.2 mi ENE 6.9 mph - 0.01 in Snow Light Snow
10:36 AM 33.8 °F 29.6 °F 33.8 °F 100% 30.23 in 2.5 mi East 4.6 mph - 0.01 in Snow Light Snow
10:43 AM 33.8 °F 28.6 °F 33.8 °F 100% 30.24 in 4.0 mi East 5.8 mph - 0.01 in Snow Light Snow
10:53 AM 35.1 °F 30.1 °F 33.1 °F 92% 30.25 in 4.0 mi ENE 5.8 mph - 0.01 in Snow Light Snow
11:03 AM 35.6 °F 32.8 °F 33.8 °F 93% 30.24 in 4.0 mi NE 3.5 mph - 0.01 in Snow Light Snow
11:53 AM 37.0 °F 34.5 °F 33.1 °F 86% 30.25 in 10.0 mi West 3.5 mph - 0.01 in   Overcast
12:13 PM 39.2 °F 37.0 °F 33.8 °F 81% 30.24 in 10.0 mi WNW 3.5 mph - N/A   Overcast
12:53 PM 39.9 °F 35.8 °F 35.1 °F 83% 30.21 in 10.0 mi SW 5.8 mph - N/A   Overcast
1:23 PM 42.8 °F 40.1 °F 35.6 °F 76% 30.21 in 10.0 mi WSW 4.6 mph - N/A   Mostly Cloudy
1:53 PM 43.0 °F 38.8 °F 35.1 °F 74% 30.18 in 10.0 mi WNW 6.9 mph - N/A   Mostly Cloudy
2:10 PM 42.8 °F 41.1 °F 33.8 °F 70% 30.18 in 10.0 mi SW 3.5 mph - N/A   Scattered Clouds
2:53 PM 46.0 °F 42.5 °F 34.0 °F 63% 30.16 in 10.0 mi WSW 6.9 mph - N/A   Scattered Clouds
3:53 PM 46.9 °F - 32.0 °F 56% 30.14 in 10.0 mi West 8.1 mph - N/A   Clear
4:53 PM 48.0 °F - 30.0 °F 50% 30.13 in 10.0 mi West 8.1 mph - N/A   Mostly Cloudy
5:53 PM 46.9 °F - 27.0 °F 46% 30.14 in 10.0 mi NE 9.2 mph - N/A   Overcast
6:53 PM 41.0 °F 38.0 °F 30.0 °F 65% 30.17 in 10.0 mi ENE 4.6 mph - N/A   Clear
7:53 PM 39.9 °F 37.8 °F 28.9 °F 65% 30.19 in 10.0 mi ENE 3.5 mph - N/A   Clear
8:53 PM 39.9 °F - 27.0 °F 60% 30.21 in 10.0 mi Calm Calm - N/A   Clear
9:53 PM 39.0 °F 36.8 °F 27.0 °F 62% 30.21 in 10.0 mi South 3.5 mph - N/A   Clear
10:53 PM 37.0 °F - 27.0 °F 67% 30.21 in 10.0 mi Calm Calm - N/A   Clear
11:53 PM 33.1 °F 30.0 °F 27.0 °F 78% 30.21 in 10.0 mi SW 3.5 mph - N/A   Clear